This is the latest recevied weather packets stored in our database for station/object OK1HOL-13. If no packets are shown the sender has not sent any weather packets the latest 10 day(s).
| Time | Temp. | Humidity | Pressure | Rain* | Wind** | Luminosity | Snow |
|---|---|---|---|---|---|---|---|
| 1778063763 | 20° C | 48% | 1006.9 hPa | - | - | 431 W/m² | - |
| 1778063163 | 20° C | 48% | 1007 hPa | - | - | 177 W/m² | - |
| 1778062563 | 19.44° C | 50% | 1006.9 hPa | - | - | 269 W/m² | - |
| 1778061963 | 18.89° C | 50% | 1007.2 hPa | - | - | 335 W/m² | - |
| 1778061363 | 19.44° C | 50% | 1007 hPa | - | - | 185 W/m² | - |
| 1778060763 | 20° C | 49% | 1007 hPa | - | - | 209 W/m² | - |
| 1778060163 | 19.44° C | 50% | 1006.9 hPa | - | - | 157 W/m² | - |
| 1778059563 | 20° C | 50% | 1006.9 hPa | - | - | 427 W/m² | - |
| 1778058963 | 19.44° C | 51% | 1007 hPa | - | - | 431 W/m² | - |
| 1778058363 | 18.89° C | 52% | 1007 hPa | - | - | 418 W/m² | - |
| 1778057763 | 18.33° C | 53% | 1007 hPa | - | - | 250 W/m² | - |
| 1778057163 | 18.33° C | 55% | 1007 hPa | - | - | 431 W/m² | - |
| 1778056563 | 17.78° C | 57% | 1007 hPa | - | - | 104 W/m² | - |
| 1778055963 | 17.78° C | 58% | 1007 hPa | - | - | 125 W/m² | - |
| 1778055363 | 17.78° C | 59% | 1007 hPa | - | - | 97 W/m² | - |
| 1778054763 | 17.22° C | 60% | 1007.1 hPa | - | - | 130 W/m² | - |
| 1778054163 | 17.22° C | 60% | 1007 hPa | - | - | 90 W/m² | - |
| 1778053563 | 16.67° C | 63% | 1006.9 hPa | - | - | 79 W/m² | - |
| 1778052963 | 16.67° C | 63% | 1006.9 hPa | - | - | 103 W/m² | - |
| 1778052363 | 16.11° C | 64% | 1007 hPa | - | - | 180 W/m² | - |
| 1778051763 | 16.67° C | 64% | 1006.9 hPa | - | - | 230 W/m² | - |
| 1778051163 | 16.67° C | 65% | 1006.9 hPa | - | - | 114 W/m² | - |
| 1778050563 | 16.11° C | 66% | 1006.9 hPa | - | - | 158 W/m² | - |
| 1778049363 | 15.56° C | 71% | 1006.8 hPa | - | - | 115 W/m² | - |
| 1778048763 | 15° C | 72% | 1006.9 hPa | - | - | 95 W/m² | - |
* Rain since midnight (hover to see other rain measurements)
** Current wind speed in m/s (hover to see current wind gust speed)